Wetbulb
56.64 52.07 50.93 53.05 53.55 52.39 51.44 50.55 49.73 51.31 53.94 51.86 51.38 50.96 54.71 56.49 55.77 56.24 56.83 57.79 58.49 59.40 61.82 63.24 64.31 65.20 65.87 67.11 67.27 67.68 67.53 68.87 68.34 67.45 66.29 66.86 67.27 67.59 67.63 68.09 67.08 66.75 67.64 67.62
52.97 50.00 54.12 53.77 52.56 51.13 50.24 48.97 49.04 51.57 53.27 52.26 51.23 50.43 53.28 55.79 55.72 56.11 56.07 56.75 57.18 58.24 59.18 60.43 61.70 63.33 64.41 65.76 66.65 66.49 66.89 67.95 67.44 65.95 65.77 66.88 67.02 66.06 66.87 67.05 68.58 68.11 68.01 67.68
50.74 52.39 53.70 52.20 51.29 50.43 50.59 49.77 49.76 49.36 51.81 52.70 51.33 49.39 51.43 55.28 56.14 56.50 56.31 56.93 57.16 57.07 57.21 58.50 59.22 60.98 61.53 63.00 64.25 64.46 65.90 66.25 67.10 67.01 65.09 64.26 64.71 63.82 63.82 64.43 63.93 64.80 64.46 64.35
52.10 53.78 52.20 51.15 50.59 51.37 47.53 51.11 50.42 49.66 47.64 43.66 50.70 42.74 50.19 53.26 53.56 54.62 55.39 55.77 56.19 56.93 57.55 58.12 58.36 59.30 60.27 60.20 62.65 64.50 65.25 66.12 64.55 66.75 63.77 64.69 62.61 61.07 61.23 61.28 63.29 64.34 63.75 63.11
51.78 51.77 51.23 50.55 51.11 52.05 48.64 50.64 48.69 48.11 46.45 45.96 45.73 43.73 47.58 53.45 51.63 53.32 55.03 56.01 56.27 56.97 56.96 56.59 57.37 58.66 58.91 60.61 60.79 63.78 65.49 65.50 66.03 65.73 64.96 61.95 60.92 60.82 60.75 60.46 61.81 64.34 64.34 64.61
53.21 55.43 53.09 52.25 52.79 52.51 52.25 49.26 49.37 49.04 47.31 41.94 46.21 45.23 45.99 49.79 51.65 52.54 55.00 55.90 56.40 56.30 56.61 57.05 58.03 58.69 58.87 59.07 59.57 61.13 61.95 63.72 65.19 64.54 64.29 62.89 62.04 60.42 59.65 60.51 60.26 59.97 60.03 60.08
52.79 52.59 53.66 53.56 50.84 52.09 50.75 47.84 41.34 41.98 41.66 40.92 47.55 45.03 47.09 51.87 53.07 52.91 52.50 53.62 55.13 55.87 55.46 55.41 56.12 56.02 57.49 56.85 57.46 58.50 59.83 60.95 63.20 62.51 62.95 61.95 62.14 61.99 59.46 59.03 58.34 59.03 58.51 58.42
47.54 45.98 52.18 53.84 50.50 47.72 47.25 46.73 40.88 36.33 38.13 40.38 46.38 42.37 46.54 52.98 53.68 54.08 54.31 54.14 54.51 54.52 55.31 55.40 55.81 56.23 54.86 56.74 57.54 58.31 58.30 58.98 59.78 60.07 60.93 62.73 61.85 58.01 57.74 57.90 58.60 57.79 57.65 58.20
48.04 47.43 52.31 52.44 51.98 49.61 47.41 44.97 48.28 42.83 44.21 41.29 43.90 47.15 50.75 52.24 52.04 52.50 52.34 53.21 53.63 54.70 55.36 54.61 55.21 55.84 56.19 56.97 56.77 55.23 54.73 54.97 57.54 58.33 56.81 59.72 60.40 60.86 59.16 60.05 57.67 55.98 55.55 55.13
51.38 46.41 52.28 51.48 51.72 50.32 48.23 49.74 43.03 46.29 36.90 35.29 40.75 42.23 43.72 48.22 49.40 51.00 51.04 51.36 53.46 54.66 54.29 54.57 55.08 55.79 53.94 55.45 54.90 54.52 56.40 55.99 56.82 57.47 57.29 57.35 58.66 58.34 58.49 57.62 55.15 54.90 54.56 54.74
53.11 50.98 49.12 50.58 48.38 46.76 48.16 46.74 46.86 46.58 44.20 37.96 36.69 41.02 50.36 49.42 50.54 50.33 51.25 52.02 52.92 53.34 52.78 53.31 53.43 53.83 55.32 55.17 53.39 55.00 55.54 54.56 54.52 55.16 55.00 54.96 54.93 55.35 55.00 54.68 54.50 54.48 54.36 53.93
53.11 51.25 46.29 48.34 50.77 50.82 48.04 45.96 47.30 44.09 40.89 44.10 42.40 41.76 52.45 51.66 51.82 52.18 51.83 51.74 51.88 52.48 52.26 52.08 52.16 53.16 52.84 53.48 54.36 53.88 54.38 53.96 53.89 53.57 52.92 52.77 54.72 54.04 53.09 53.42 53.43 53.69 52.67 53.66
54.04 48.92 44.38 45.63 48.89 50.71 47.78 48.87 48.67 48.80 48.02 42.25 40.02 42.47 52.97 53.19 51.88 51.58 50.89 50.81 50.79 51.81 51.45 52.11 52.35 51.79 52.09 53.18 53.30 53.57 53.24 52.35 52.65 52.54 51.16 51.03 51.32 51.89 51.65 51.82 52.48 52.90 52.16 51.67
55.32 49.22 46.44 42.50 45.89 48.56 45.73 46.65 48.03 47.35 44.51 43.03 42.93 44.78 48.40 49.70 49.49 50.33 50.56 50.68 49.89 50.50 51.27 51.24 51.36 51.51 52.35 52.41 52.17 51.84 51.79 51.86 51.21 50.94 49.70 48.59 48.84 49.25 49.94 50.11 50.26 50.28 50.90 50.54
52.30 45.89 47.91 48.32 49.00 48.30 46.42 45.35 45.74 44.77 45.50 43.08 44.72 44.69 47.53 48.91 49.02 49.71 50.76 50.44 49.42 49.83 50.44 50.11 50.26 51.58 51.52 51.32 51.13 50.96 50.59 50.11 48.85 46.91 45.85 45.86 46.94 47.73 48.00 48.59 48.46 49.02 49.34 49.35
54.24 46.42 47.48 44.72 47.68 47.53 45.37 47.14 47.14 46.34 46.52 46.47 46.87 45.78 49.98 50.32 50.39 49.51 49.36 48.79 48.86 49.28 49.56 50.10 51.06 51.42 50.46 50.49 49.56 49.10 47.84 45.71 45.85 45.07 45.07 45.84 46.17 46.54 46.81 47.14 47.31 47.83 47.85 48.31
50.81 48.55 46.58 42.28 46.86 47.12 43.99 47.29 47.61 47.29 46.86 46.93 42.85 46.45 49.32 48.51 48.42 49.29 49.47 49.05 48.83 49.57 49.70 49.93 50.88 50.41 50.32 49.95 48.60 45.73 44.51 45.70 45.16 44.83 45.18 45.79 45.93 45.77 46.01 46.75 46.78 46.43 46.74 47.88
49.51 49.35 47.73 42.60 44.85 36.97 47.43 51.89 49.96 47.81 47.18 48.19 47.68 48.29 49.24 48.86 50.26 50.37 50.61 49.75 50.11 50.15 49.96 50.77 49.92 49.89 50.37 49.34 47.04 45.10 45.14 44.87 44.73 44.38 44.76 45.49 45.77 45.84 46.08 46.26 46.38 47.06 47.27 47.47
52.56 49.10 44.68 41.51 41.56 45.36 47.31 50.06 47.68 44.08 43.78 48.56 48.71 48.70 49.47 50.24 50.46 49.99 51.78 52.14 51.43 50.79 51.53 50.24 50.46 50.64 50.08 47.07 45.31 44.48 44.24 44.25 44.23 44.23 44.57 45.32 45.91 45.86 46.10 45.86 46.49 47.61 47.54 47.60
51.75 51.90 45.77 43.66 39.76 37.10 46.95 50.61 51.56 49.57 42.32 50.22 49.95 49.17 48.94 49.42 44.19 46.26 52.46 52.23 51.16 52.32 51.49 50.19 50.28 49.08 47.29 46.55 45.14 44.00 43.57 43.80 43.58 44.54 45.38 46.37 46.72 46.54 46.53 47.08 47.36 48.23 48.47 47.66
47.37 47.56 43.86 42.63 41.56 44.79 50.96 51.34 51.23 41.25 42.89 51.21 51.20 51.05 50.67 47.88 49.62 52.46 52.90 51.51 51.89 51.90 50.79 50.87 49.39 47.63 47.61 46.96 44.83 43.42 43.72 43.30 44.94 46.01 46.56 47.10 48.13 48.22 48.69 48.65 48.83 48.38 47.61 47.30
47.44 46.45 44.59 45.65 42.40 39.49 52.45 50.14 43.48 50.10 53.24 52.53 52.19 51.99 51.15 51.84 52.38 51.68 51.11 50.38 51.31 50.07 49.71 49.46 47.49 46.79 47.53 46.60 44.50 43.34 43.30 45.03 45.91 46.49 46.94 48.70 48.96 48.80 48.56 47.57 47.58 47.46 46.59 44.99
46.37 49.41 47.89 48.81 46.49 54.99 54.55 54.26 54.61 54.53 52.81 52.63 52.37 52.61 51.98 52.11 50.21 50.47 49.58 50.76 50.70 50.02 48.73 48.38 47.23 46.17 45.89 45.84 44.76 43.25 44.31 45.32 45.85 46.36 47.60 48.39 48.64 48.59 48.91 48.16 47.13 44.96 44.53 44.08
51.59 53.70 48.28 48.96 50.46 50.86 52.83 54.75 54.75 54.61 53.51 53.53 53.33 52.80 52.32 50.16 50.20 49.83 50.43 50.49 49.69 49.17 47.72 47.32 46.66 44.92 43.97 44.85 44.88 44.82 45.81 46.42 46.10 46.04 47.55 48.12 48.00 47.76 47.98 47.87 47.15 45.03 43.55 42.41
50.65 51.44 49.84 49.16 51.39 52.29 52.60 53.80 53.95 53.58 54.03 53.31 53.59 52.74 51.02 50.40 49.72 49.82 50.22 49.97 49.49 48.28 47.09 46.74 46.20 44.09 43.33 44.09 44.30 45.60 46.79 46.35 45.53 46.77 48.69 49.22 49.08 46.79 45.85 46.21 46.25 45.56 44.95 41.30
51.92 51.55 48.64 48.00 54.03 52.50 53.03 53.95 53.89 52.75 52.78 53.23 52.24 50.81 51.34 50.43 49.94 50.34 49.85 50.42 48.48 47.14 46.71 46.36 44.32 43.20 43.14 43.84 44.16 45.20 47.37 46.28 45.59 46.67 48.40 49.30 47.10 46.00 45.73 45.65 45.91 44.07 40.38 39.98
MSLP
1006.04 1005.99 1005.37 1005.67 1005.82 1005.98 1005.98 1005.72 1005.31 1005.11 1005.63 1006.43 1007.08 1007.35 1007.83 1008.98 1009.96 1010.43 1011.31 1012.30 1013.19 1014.08 1014.83 1015.40 1015.76 1016.05 1016.22 1016.30 1016.39 1016.60 1016.81 1017.00 1016.85 1016.50 1016.31 1015.87 1015.78 1015.39 1015.06 1014.96 1015.06 1015.24 1015.54 1015.67
1006.29 1005.90 1006.22 1006.70 1006.77 1006.89 1006.71 1006.47 1006.05 1005.75 1005.68 1006.54 1007.45 1007.60 1007.57 1008.61 1009.81 1010.78 1011.60 1012.56 1013.38 1014.02 1014.77 1015.45 1015.94 1016.27 1016.48 1016.80 1016.97 1017.18 1017.31 1017.45 1017.41 1017.30 1017.06 1016.68 1016.34 1015.87 1015.70 1015.42 1015.20 1015.32 1015.59 1015.73
1006.27 1007.09 1007.35 1007.32 1007.25 1007.56 1007.49 1007.35 1006.88 1006.93 1006.92 1006.98 1007.34 1007.30 1007.54 1008.40 1009.87 1011.20 1012.12 1012.95 1013.66 1014.32 1014.94 1015.44 1015.86 1016.17 1016.41 1016.66 1016.95 1017.37 1017.67 1017.82 1017.76 1017.80 1017.51 1017.14 1016.68 1016.32 1016.18 1015.94 1015.92 1016.01 1016.32 1016.50
1006.95 1007.70 1007.98 1007.93 1008.05 1008.76 1008.73 1008.75 1008.63 1008.37 1008.32 1007.85 1007.40 1006.91 1006.89 1008.22 1010.01 1011.21 1012.01 1012.71 1013.40 1014.08 1014.56 1015.05 1015.50 1015.81 1016.19 1016.29 1016.48 1016.68 1016.99 1017.33 1017.61 1017.87 1018.04 1017.84 1017.59 1017.17 1016.80 1016.48 1016.19 1016.04 1016.08 1016.67
1007.78 1008.04 1008.37 1008.50 1009.02 1009.71 1009.78 1009.70 1009.63 1009.29 1009.00 1008.74 1008.21 1007.77 1007.11 1008.37 1009.69 1010.65 1011.55 1012.35 1013.33 1013.97 1014.53 1014.87 1015.07 1015.39 1015.67 1015.82 1015.93 1016.13 1016.41 1016.86 1017.21 1017.58 1017.98 1017.98 1017.69 1017.29 1017.02 1016.71 1016.34 1016.00 1015.70 1015.56
1008.11 1008.70 1009.28 1009.36 1009.83 1009.85 1010.39 1010.07 1009.52 1009.20 1009.06 1008.61 1007.66 1007.69 1007.66 1008.59 1009.41 1010.08 1011.31 1011.98 1012.84 1013.73 1014.38 1014.57 1014.73 1014.97 1015.19 1015.37 1015.53 1016.02 1016.36 1016.59 1016.87 1016.93 1017.20 1017.63 1017.59 1017.50 1017.28 1016.93 1016.65 1016.33 1016.14 1015.76
1008.61 1008.70 1009.61 1010.51 1010.18 1009.77 1010.13 1010.41 1010.03 1008.74 1008.89 1008.33 1008.13 1008.50 1008.39 1009.61 1010.71 1011.52 1012.38 1012.79 1013.24 1013.86 1014.18 1014.21 1014.49 1014.78 1015.13 1015.62 1015.91 1016.31 1016.25 1016.33 1016.30 1016.27 1016.40 1016.78 1016.92 1016.99 1017.04 1016.85 1016.45 1016.09 1015.67 1015.38
1008.86 1008.97 1009.71 1010.58 1010.96 1011.16 1011.09 1011.42 1011.44 1010.99 1010.25 1009.32 1008.95 1008.76 1010.59 1010.98 1011.88 1012.44 1012.68 1012.92 1013.73 1013.95 1014.13 1014.68 1015.04 1015.34 1015.59 1015.69 1016.01 1016.03 1016.01 1015.86 1015.83 1015.79 1015.95 1016.19 1016.22 1016.17 1016.07 1016.22 1016.11 1016.07 1015.87 1015.63
1010.48 1010.28 1011.01 1011.34 1011.53 1011.96 1011.73 1011.78 1012.48 1012.55 1012.24 1011.42 1010.42 1010.96 1011.35 1011.80 1012.04 1012.37 1012.64 1013.16 1013.62 1014.14 1014.81 1015.14 1015.21 1015.32 1015.24 1015.38 1016.02 1015.98 1015.97 1016.26 1016.10 1015.43 1015.52 1015.34 1015.46 1015.47 1015.58 1015.69 1016.10 1016.38 1016.35 1016.11
1011.66 1011.53 1010.97 1011.68 1012.09 1012.25 1012.40 1012.57 1012.66 1012.88 1012.92 1012.20 1011.17 1011.11 1011.36 1011.79 1012.30 1012.67 1013.11 1013.40 1013.72 1014.37 1014.91 1015.01 1015.03 1014.97 1015.67 1015.71 1015.76 1015.43 1015.46 1015.51 1015.44 1015.31 1015.29 1015.19 1015.10 1015.20 1015.37 1015.58 1015.64 1015.90 1015.91 1015.83
1012.58 1012.65 1012.18 1012.15 1011.59 1011.50 1012.35 1012.35 1012.88 1013.32 1013.74 1013.39 1012.74 1011.61 1011.87 1012.53 1012.76 1012.97 1013.28 1013.61 1014.17 1014.68 1015.11 1015.06 1014.67 1014.66 1014.73 1015.10 1015.09 1015.28 1015.61 1015.71 1015.70 1015.71 1015.76 1015.71 1015.52 1015.31 1015.48 1015.47 1015.20 1015.30 1015.45 1015.49
1014.04 1013.81 1012.94 1011.92 1011.67 1012.19 1012.45 1012.62 1012.86 1013.46 1014.12 1013.70 1013.48 1012.87 1012.42 1012.69 1012.79 1012.95 1013.35 1013.89 1014.40 1014.71 1014.60 1014.48 1014.52 1014.65 1014.91 1015.14 1015.72 1015.89 1015.91 1015.82 1015.83 1015.98 1015.96 1015.72 1015.19 1015.11 1015.01 1014.99 1014.98 1014.79 1014.95 1015.00
1014.66 1014.46 1013.84 1012.62 1011.91 1012.51 1012.69 1012.63 1012.98 1013.62 1014.29 1014.38 1014.08 1013.13 1012.15 1012.17 1012.49 1013.07 1013.71 1014.28 1014.68 1014.74 1014.63 1014.64 1014.76 1014.95 1015.23 1015.76 1015.92 1016.05 1016.21 1016.20 1016.18 1016.10 1015.88 1015.80 1015.66 1015.32 1015.01 1014.84 1014.59 1014.63 1014.64 1014.54
1015.73 1015.23 1014.63 1013.63 1012.05 1012.35 1012.13 1012.19 1012.48 1013.01 1013.55 1013.70 1013.54 1012.79 1012.55 1012.58 1013.01 1013.61 1014.17 1014.72 1014.86 1014.81 1014.97 1015.08 1015.16 1015.19 1015.67 1016.07 1016.43 1016.69 1016.54 1016.46 1016.30 1016.28 1016.21 1016.21 1015.93 1015.50 1015.07 1014.78 1014.54 1014.31 1014.24 1013.97
1016.03 1015.50 1014.82 1013.91 1013.05 1012.41 1012.15 1012.04 1012.10 1012.32 1012.71 1012.93 1012.99 1012.80 1012.92 1013.38 1013.94 1014.29 1014.69 1015.02 1015.04 1015.07 1015.35 1015.45 1015.45 1015.62 1016.00 1016.37 1016.67 1016.89 1017.12 1017.23 1017.18 1016.87 1016.43 1016.11 1015.69 1015.23 1014.85 1014.49 1014.16 1013.90 1013.66 1013.41
1015.54 1015.62 1015.04 1014.19 1013.44 1012.75 1011.95 1011.74 1011.99 1012.16 1012.44 1012.79 1012.96 1013.06 1013.56 1014.19 1014.50 1014.90 1015.22 1015.35 1015.55 1015.83 1015.78 1015.57 1015.64 1016.02 1016.45 1016.71 1016.94 1017.21 1017.59 1017.62 1017.43 1016.85 1016.23 1015.74 1015.21 1014.72 1014.27 1013.88 1013.52 1013.25 1012.98 1012.65
1015.27 1015.45 1015.15 1014.37 1013.63 1012.53 1012.08 1011.94 1011.98 1012.12 1013.01 1013.48 1013.87 1014.26 1014.62 1014.98 1015.34 1015.43 1015.43 1015.45 1015.88 1015.85 1015.71 1015.86 1016.10 1016.55 1016.95 1017.16 1017.63 1017.98 1017.76 1017.40 1016.99 1016.42 1015.75 1015.14 1014.62 1014.10 1013.63 1013.15 1012.73 1012.41 1012.07 1011.80
1015.15 1015.43 1015.61 1014.91 1014.16 1013.05 1011.94 1012.56 1013.14 1013.63 1014.09 1014.55 1014.95 1015.37 1015.60 1015.88 1015.82 1015.76 1015.72 1015.83 1015.97 1015.90 1016.12 1016.33 1016.80 1017.10 1017.26 1017.71 1018.18 1018.09 1017.62 1017.18 1016.61 1015.91 1015.25 1014.58 1013.93 1013.37 1012.85 1012.43 1011.95 1011.56 1011.23 1010.94
1015.13 1015.81 1015.63 1015.12 1014.31 1013.20 1012.52 1013.19 1014.15 1015.01 1015.21 1015.40 1015.71 1016.13 1016.21 1016.16 1015.94 1015.82 1016.02 1016.20 1016.20 1016.36 1016.58 1016.97 1017.16 1017.19 1017.59 1018.20 1018.32 1018.08 1017.56 1016.92 1016.13 1015.35 1014.57 1013.88 1013.30 1012.67 1012.10 1011.68 1011.23 1010.74 1010.42 1010.10
1014.55 1015.39 1016.18 1015.32 1014.53 1013.52 1012.99 1013.99 1014.63 1015.20 1015.67 1016.02 1016.42 1016.63 1016.63 1016.49 1016.19 1016.03 1016.34 1016.33 1016.43 1016.66 1017.03 1017.28 1017.42 1017.74 1018.23 1018.32 1018.34 1017.90 1017.24 1016.49 1015.66 1014.81 1013.98 1013.15 1012.48 1011.97 1011.44 1010.96 1010.45 1009.97 1009.75 1009.54
1014.14 1014.69 1014.99 1014.80 1014.37 1013.73 1012.97 1014.21 1015.14 1015.60 1016.54 1016.56 1016.74 1016.79 1016.81 1016.82 1016.87 1016.54 1016.40 1016.48 1016.67 1016.92 1017.25 1017.43 1017.79 1018.08 1018.43 1018.42 1018.21 1017.64 1016.97 1016.21 1015.32 1014.45 1013.44 1012.54 1011.81 1011.28 1010.76 1010.20 1009.79 1009.55 1009.30 1008.97
1012.60 1013.39 1013.84 1013.97 1013.69 1013.81 1014.11 1014.97 1015.58 1015.98 1016.26 1016.50 1016.61 1016.74 1016.85 1016.87 1016.70 1016.64 1016.67 1016.77 1016.85 1017.19 1017.31 1017.75 1018.14 1018.43 1018.47 1018.34 1018.05 1017.43 1016.72 1015.93 1014.99 1014.03 1013.08 1012.12 1011.45 1010.89 1010.35 1009.97 1009.52 1009.26 1009.07 1008.69
1012.00 1012.59 1013.15 1013.36 1013.36 1013.95 1014.16 1014.63 1015.23 1015.68 1015.98 1016.20 1016.44 1016.70 1016.87 1016.69 1016.80 1016.91 1017.00 1016.98 1017.32 1017.47 1017.76 1018.10 1018.50 1018.56 1018.52 1018.22 1017.85 1017.20 1016.45 1015.65 1014.73 1013.75 1012.87 1012.00 1011.32 1010.70 1010.11 1009.68 1009.22 1009.07 1008.80 1008.42
1011.58 1012.08 1012.67 1013.16 1013.14 1013.21 1013.60 1014.05 1014.70 1015.17 1015.56 1016.10 1016.46 1016.60 1016.67 1016.90 1017.08 1017.17 1017.19 1017.46 1017.71 1017.88 1018.01 1018.35 1018.56 1018.62 1018.37 1017.99 1017.56 1017.03 1016.14 1015.42 1014.58 1013.69 1012.73 1011.97 1011.26 1010.67 1010.10 1009.62 1009.16 1009.02 1008.95 1008.33
1011.61 1011.86 1012.07 1012.50 1013.01 1013.10 1013.11 1013.56 1014.34 1015.05 1015.65 1016.11 1016.23 1016.51 1016.86 1017.12 1017.23 1017.22 1017.32 1017.74 1017.95 1018.24 1018.37 1018.71 1018.78 1018.73 1018.34 1017.83 1017.31 1016.75 1015.90 1015.34 1014.59 1013.66 1012.59 1011.83 1011.30 1010.95 1010.33 1009.77 1009.26 1009.00 1008.84 1008.40
1011.53 1011.67 1011.98 1011.99 1012.57 1013.00 1013.42 1013.88 1014.55 1015.13 1015.59 1015.96 1016.37 1016.78 1017.13 1017.24 1017.27 1017.35 1017.82 1018.05 1018.47 1018.58 1018.85 1018.94 1019.09 1018.87 1018.38 1017.76 1017.16 1016.60 1015.91 1015.32 1014.62 1013.66 1012.75 1011.96 1011.72 1011.29 1010.69 1010.08 1009.40 1008.82 1008.69 1008.44
Wind_Speed
10 9 9 11 13 12 12 13 13 12 8 1 8 15 11 12 3 7 5 7 7 8 9 10 11 11 11 10 8 9 10 9 8 5 5 4 4 4 3 3 5 4 3 4
6 12 9 9 7 11 13 15 13 12 3 4 7 16 10 12 8 3 2 7 6 8 9 8 9 9 7 7 6 8 7 8 8 8 8 7 6 5 4 4 2 2 2 3
9 9 7 6 8 7 12 15 11 13 16 12 10 17 14 15 11 9 4 6 7 5 5 5 7 7 6 5 5 6 4 5 5 6 6 7 7 6 5 5 6 6 8 8
5 8 8 7 3 8 10 14 15 13 12 12 16 13 8 19 12 10 9 7 4 4 2 3 4 4 4 2 3 4 4 3 5 5 6 8 6 6 5 5 4 2 6 9
6 1 5 9 11 9 12 14 13 13 12 13 15 10 5 17 12 14 12 8 3 1 5 9 7 7 6 7 5 3 1 4 3 4 6 8 9 7 7 8 9 7 6 6
6 5 4 7 7 9 9 13 15 14 11 11 17 14 4 6 6 6 10 8 4 0 6 8 11 5 8 10 10 6 6 4 3 4 4 7 7 8 9 9 9 7 8 10
6 12 8 4 10 4 5 10 8 4 9 9 7 2 7 12 12 12 10 11 10 9 11 13 13 14 11 12 9 8 6 7 5 5 4 6 6 6 9 10 10 10 8 7
11 6 4 7 4 6 10 5 6 8 9 14 18 7 8 15 10 6 6 8 7 12 11 14 16 13 10 10 12 11 9 8 8 7 7 5 6 7 7 9 8 8 9 8
9 3 5 3 4 4 11 5 7 5 10 11 11 11 11 7 3 2 7 6 11 13 14 15 17 15 12 9 13 14 13 13 12 7 9 8 8 6 5 4 3 4 7 8
6 8 8 9 3 5 5 7 4 5 3 7 10 12 8 5 12 13 13 12 13 13 16 16 15 11 12 11 11 11 9 11 11 11 11 10 7 8 5 4 4 5 6 6
9 4 7 0 8 7 6 7 6 1 5 7 9 5 10 7 10 10 11 14 13 13 13 15 14 13 8 7 12 11 13 15 15 13 12 11 9 8 9 9 8 8 9 10
7 5 8 13 9 3 7 11 9 3 7 9 9 10 4 3 7 11 12 14 18 18 18 17 17 13 14 13 14 14 14 13 13 13 15 16 12 9 9 10 9 8 9 10
6 4 4 8 9 5 5 7 8 7 5 10 10 9 11 16 14 13 14 16 16 16 18 16 15 14 13 14 15 15 14 14 14 13 12 14 15 14 12 12 10 10 11 11
4 5 9 8 15 12 7 9 11 10 6 11 14 18 17 16 15 15 15 16 19 18 16 17 16 14 14 15 15 16 15 13 14 13 14 16 16 15 14 13 12 12 12 11
3 7 12 14 16 15 14 15 15 14 15 14 14 16 15 15 16 16 16 17 20 18 19 19 17 14 16 15 15 15 14 14 14 15 15 15 15 14 14 14 13 13 13 11
7 7 10 13 14 16 19 14 14 16 14 15 15 13 15 16 16 16 17 19 18 18 19 17 17 17 17 16 15 13 14 15 13 14 15 15 15 14 14 14 13 12 13 13
6 8 9 12 13 16 8 14 8 6 11 12 11 14 15 15 15 16 17 16 17 18 18 18 16 16 15 14 13 15 14 14 14 14 14 15 14 14 14 14 13 13 13 11
8 8 8 12 14 14 10 6 5 6 5 8 12 13 11 14 15 17 17 17 17 17 18 16 15 15 13 14 16 14 14 14 14 14 14 14 13 14 13 13 13 13 11 12
8 8 8 10 12 14 13 6 2 5 6 7 5 9 13 16 17 15 15 17 16 16 14 13 13 14 12 14 13 14 14 14 15 14 14 14 13 13 13 13 13 12 11 10
7 8 7 11 13 12 8 9 6 3 4 3 7 12 14 16 11 11 15 16 16 14 14 14 15 14 12 12 13 14 14 14 15 14 15 14 14 12 12 12 12 10 8 9
9 7 10 11 13 13 4 13 3 3 3 6 10 11 13 11 11 14 15 16 15 14 15 14 15 12 13 12 12 14 14 14 15 15 15 14 12 11 11 9 8 7 7 8
10 6 7 9 12 13 10 6 3 3 6 8 11 11 12 13 13 15 16 16 15 16 17 17 12 13 12 12 11 14 14 15 15 14 14 11 10 8 8 8 8 6 7 8
11 7 6 5 4 7 5 5 3 4 8 9 10 10 13 12 15 15 15 14 15 16 13 13 11 13 12 13 11 13 13 14 14 14 13 11 10 9 8 7 6 5 6 6
8 11 7 4 6 7 3 5 6 7 5 7 9 11 12 13 14 14 13 13 14 13 13 12 13 12 13 13 13 13 13 11 13 13 13 10 9 9 9 6 5 3 4 6
10 3 6 8 11 14 12 7 1 3 4 7 9 10 12 13 13 14 12 13 12 11 12 10 10 11 13 14 13 13 13 11 12 13 12 8 6 8 8 7 6 5 3 4
10 8 8 8 9 3 5 2 1 2 5 7 9 11 11 12 12 14 12 11 11 14 12 10 11 12 13 13 13 13 12 10 11 11 10 7 6 7 7 7 7 6 8 10
Wind_Direction
225 284 281 16 1 349 324 310 317 315 117 129 286 290 146 127 226 145 103 84 89 84 76 60 41 44 43 36 48 32 31 19 344 325 334 337 333 244 205 213 150 122 21 19
262 245 46 346 353 330 317 303 293 289 212 162 288 277 239 146 172 92 109 113 78 72 77 63 57 39 57 72 39 45 16 29 353 7 336 341 333 328 330 336 63 144 251 248
268 26 2 2 326 349 316 344 305 337 338 317 254 248 256 150 135 128 117 101 119 86 21 40 23 52 32 60 101 83 50 20 351 6 340 343 335 341 347 345 348 10 352 322
1 31 334 311 351 26 303 12 336 315 302 287 304 298 279 146 158 162 156 171 103 81 12 356 352 21 356 6 318 100 109 76 352 2 337 324 301 289 282 287 267 263 234 237
45 12 334 301 23 6 312 337 302 291 284 287 282 267 257 141 172 179 181 173 167 112 341 337 310 316 320 296 310 312 73 56 42 9 325 316 308 306 320 308 317 317 311 265
321 65 300 357 327 274 304 287 293 269 256 261 261 229 102 129 175 99 144 163 142 278 294 287 293 329 308 318 318 18 3 9 328 284 281 277 302 305 305 307 300 294 285 276
207 225 121 350 317 354 270 333 315 290 234 237 51 317 313 96 64 48 26 10 14 344 307 306 330 329 353 348 358 333 325 305 289 282 268 272 274 287 296 289 285 280 276 278
298 181 146 117 358 336 295 339 292 321 316 328 336 304 79 76 79 65 9 355 311 282 327 327 319 323 335 338 324 309 307 294 294 284 274 277 257 265 264 273 283 308 306 311
330 30 110 65 355 345 10 305 31 327 281 272 274 76 95 89 105 256 350 344 316 17 5 346 334 318 307 324 346 343 324 310 283 291 281 254 259 265 276 315 41 346 313 317
299 300 302 120 313 189 278 344 272 195 284 300 318 325 64 42 10 349 336 323 313 6 339 328 312 320 346 300 297 281 296 326 332 328 340 331 321 322 6 336 320 293 280 279
304 294 283 339 224 263 189 226 215 16 309 294 294 300 72 23 346 332 325 339 352 332 309 289 312 324 342 317 332 346 356 349 339 342 334 322 315 327 320 310 301 299 293 284
48 332 289 282 82 29 299 292 327 301 278 290 321 291 82 311 291 352 349 351 343 334 330 323 328 350 354 351 14 353 339 335 332 329 317 306 310 316 300 294 304 300 290 285
358 238 292 279 198 144 255 270 237 235 266 263 280 281 298 329 349 354 351 342 334 325 323 340 348 345 348 358 349 350 346 337 332 328 328 326 324 317 309 302 298 297 291 284
345 275 268 264 310 321 271 258 243 242 250 264 265 285 302 333 348 348 343 340 328 325 351 334 341 346 355 349 349 338 332 334 331 328 324 313 304 300 302 303 301 295 284 279
242 264 271 269 278 289 292 285 280 272 276 281 293 299 320 359 349 337 343 336 323 349 346 338 336 352 345 347 339 338 340 340 335 319 310 298 294 293 292 288 288 286 280 277
199 274 282 281 279 272 267 275 288 279 280 280 286 304 357 346 341 335 336 324 355 340 325 332 343 353 350 341 337 342 334 319 316 303 295 293 290 291 289 288 283 283 279 269
219 261 288 288 296 297 273 273 330 1 352 340 319 331 333 335 332 326 330 329 343 323 343 342 350 356 344 342 354 333 320 312 307 299 295 291 289 287 285 285 280 277 275 273
275 256 273 278 278 275 276 80 21 327 334 345 331 322 337 330 320 328 320 357 332 348 344 354 358 344 339 354 337 324 317 314 307 301 298 296 291 286 284 284 281 275 274 268
202 272 280 273 274 285 297 102 90 111 308 314 344 338 324 324 319 313 0 344 340 349 358 1 344 337 1 344 332 320 314 309 305 302 298 295 294 289 285 283 281 275 273 268
212 197 256 282 287 287 309 134 120 188 319 34 349 333 325 322 315 327 344 337 352 357 6 352 344 358 345 338 327 316 309 307 305 307 304 298 290 286 283 281 278 282 275 271
195 217 239 254 257 263 334 117 142 283 258 355 324 317 318 322 321 326 339 351 348 2 352 353 349 343 336 331 321 315 312 312 312 308 305 301 295 291 288 293 290 289 281 276
264 199 233 265 263 269 93 115 195 11 343 307 319 325 325 317 320 337 347 343 353 353 353 353 345 342 333 324 321 315 316 317 314 313 311 310 311 303 302 296 292 288 297 288
259 261 288 250 277 152 180 233 160 274 299 314 319 334 311 325 336 344 343 337 354 353 345 352 342 334 327 323 322 315 315 317 317 318 316 319 319 315 313 312 312 309 306 295
235 213 219 262 267 276 325 228 231 267 302 346 326 309 338 335 340 337 327 2 346 344 342 349 331 329 324 323 324 318 318 320 321 320 313 315 316 328 333 324 302 284 326 311
285 339 238 262 260 265 266 215 256 7 338 305 316 340 345 340 332 334 350 347 344 343 352 340 334 329 323 322 322 325 326 335 327 323 323 311 339 343 335 332 330 327 274 298
261 270 263 255 276 302 306 60 21 289 306 332 344 346 333 329 337 344 351 346 349 347 342 345 340 327 322 320 325 326 332 334 324 324 326 341 359 345 338 338 344 322 272 307